Weather History for KCKC - December, 2013

Change the Weather History Date:

Saturday, December 28, 2013

  Actual Average Record
Temperature  
Mean Temperature 10 °F -  
Max Temperature 24 °F 15 °F 39 °F (2003)
Min Temperature -5 °F 1 °F -18 °F (2000)
Degree Days  
Heating Degree Days 55    
Moisture  
Dew Point 11 °F    
Average Humidity 82    
Maximum Humidity 93    
Minimum Humidity 71    
Precipitation  
Precipitation 0.00 in - - ()
Sea Level Pressure  
Sea Level Pressure 29.83 in    
Wind  
Wind Speed 5 mph (North)    
Max Wind Speed 17 mph    
Max Gust Speed 22 mph    
Visibility 4 miles    
Events Fog , Snow    
Averages and records for this station are not official NWS values.
T = Trace of Precipitation, MM = Missing Value Source: NWS Daily Summary

Daily Weather History Graph

Daily Weather History Graph

Search for Another Location

Airport or City:

Trip Planner

Search our weather history database for the weather conditions in past years. The results will help you decide how hot, cold, wet, or windy it might be!

Date:

Astronomy

Dec. 28, 2013 Rise Set
Actual Time 7:50 AM CST 4:16 PM CST
Civil Twilight 7:14 AM CST 4:52 PM CST
Nautical Twilight 6:34 AM CST 5:31 PM CST
Astronomical Twilight 5:57 AM CST 6:09 PM CST
Moon 3:17 AM CST (12/28) 1:16 PM CST (12/28)
Length of Visible Light 9h 38m
Length of Day
8h 25m
Waning Crescent, 19% of the Moon is Illuminated
Dec 28
Waning Crescent
Jan 1
New
Jan 7
First Quarter
Jan 15
Full
Jan 23
Last Quarter

Hourly Weather History & Observations

Time (CST) Temp. Windchill Dew Point Humidity Pressure Visibility Wind Dir Wind Speed Gust Speed Precip Events Conditions
12:13 AM 24.8 °F 19.1 °F 21.2 °F 86% 29.84 in 10.0 mi West 4.6 mph - N/A   Overcast
12:34 AM 24.8 °F 20.5 °F 21.2 °F 86% 29.84 in 10.0 mi WNW 3.5 mph - N/A   Overcast
12:54 AM 24.8 °F - 21.2 °F 86% 29.84 in 10.0 mi Calm Calm - N/A   Overcast
1:14 AM 24.8 °F 20.5 °F 21.2 °F 86% 29.83 in 10.0 mi West 3.5 mph - N/A   Overcast
1:33 AM 24.8 °F - 21.2 °F 86% 29.84 in 10.0 mi Calm Calm - N/A   Overcast
1:53 AM 24.8 °F - 21.2 °F 86% 29.81 in 10.0 mi Calm Calm - N/A   Overcast
2:13 AM 24.8 °F - 21.2 °F 86% 29.82 in 10.0 mi Calm Calm - N/A   Overcast
2:33 AM 24.8 °F - 21.2 °F 86% 29.83 in 10.0 mi Calm Calm - N/A   Overcast
2:53 AM 24.8 °F - 21.2 °F 86% 29.81 in 10.0 mi Calm Calm - N/A   Overcast
3:13 AM 24.8 °F - 21.2 °F 86% 29.85 in 10.0 mi Calm Calm - N/A   Overcast
3:34 AM 24.8 °F - 21.2 °F 86% 29.84 in 10.0 mi Calm Calm - N/A   Overcast
3:53 AM 24.8 °F - 21.2 °F 86% 29.83 in 7.0 mi Calm Calm - N/A   Overcast
4:14 AM 24.8 °F - 21.2 °F 86% 29.83 in 10.0 mi Calm Calm - N/A   Overcast
4:34 AM 24.8 °F - 21.2 °F 86% 29.82 in 5.0 mi Calm Calm - N/A   Overcast
4:54 AM 24.8 °F - 21.2 °F 86% 29.81 in 7.0 mi Calm Calm - N/A   Overcast
5:13 AM 24.8 °F - 21.2 °F 86% 29.81 in 10.0 mi Calm Calm - N/A   Overcast
5:33 AM 24.8 °F - 21.2 °F 86% 29.80 in 7.0 mi Calm Calm - N/A   Overcast
5:53 AM 24.8 °F - 21.2 °F 86% 29.80 in 3.0 mi Calm Calm - N/A   Overcast
6:13 AM 24.8 °F - 21.2 °F 86% 29.79 in 1.0 mi Calm Calm - N/A   Overcast
6:33 AM 24.8 °F - 21.2 °F 86% 29.80 in 0.2 mi Calm Calm - N/A Fog Light Freezing Fog
6:54 AM 24.8 °F - 21.2 °F 86% 29.80 in 1.5 mi Calm Calm - N/A   Overcast
7:13 AM 24.8 °F - 21.2 °F 86% 29.81 in 4.0 mi Calm Calm - N/A   Overcast
7:33 AM 24.8 °F - 21.2 °F 86% 29.80 in 3.0 mi Calm Calm - N/A   Overcast
7:53 AM 24.8 °F - 21.2 °F 86% 29.80 in 3.0 mi Calm Calm - N/A   Overcast
8:13 AM 24.8 °F - 21.2 °F 86% 29.80 in 3.0 mi Calm Calm - N/A   Overcast
8:34 AM 24.8 °F 20.5 °F 21.2 °F 86% 29.80 in 2.0 mi NE 3.5 mph - N/A   Overcast
8:54 AM 24.8 °F - 21.2 °F 86% 29.80 in 1.2 mi Calm Calm - N/A   Overcast
9:14 AM 24.8 °F 20.5 °F 21.2 °F 86% 29.80 in 0.8 mi NE 3.5 mph - N/A Snow Light Snow
9:33 AM 24.8 °F - 21.2 °F 86% 29.80 in 1.8 mi Calm Calm - N/A Snow Light Snow
9:53 AM 24.8 °F - 21.2 °F 86% 29.80 in 2.0 mi Calm Calm - N/A   Overcast
10:14 AM 24.8 °F 19.1 °F 21.2 °F 86% 29.81 in 2.5 mi East 4.6 mph - N/A   Overcast
10:33 AM 24.8 °F 19.1 °F 21.2 °F 86% 29.81 in 2.5 mi ENE 4.6 mph - N/A Snow Light Snow
10:53 AM 24.8 °F 19.1 °F 21.2 °F 86% 29.80 in 3.0 mi East 4.6 mph - N/A   Overcast
11:14 AM 24.8 °F 17.9 °F 19.4 °F 80% 29.80 in 2.5 mi ENE 5.8 mph - N/A   Overcast
11:33 AM 24.8 °F 17.9 °F 19.4 °F 80% 29.80 in 2.0 mi NE 5.8 mph - N/A   Overcast
11:53 AM 21.2 °F 11.7 °F 19.4 °F 93% 29.79 in 2.5 mi NE 8.1 mph - N/A   Overcast
12:14 PM 19.4 °F 9.5 °F 15.8 °F 86% 29.78 in 1.8 mi NNE 8.1 mph - N/A   Overcast
12:34 PM 17.6 °F 5.7 °F 14.0 °F 86% 29.77 in 1.8 mi NNE 10.4 mph - N/A   Overcast
12:54 PM 17.6 °F 5.7 °F 14.0 °F 86% 29.77 in 1.2 mi NNE 10.4 mph - N/A   Overcast
1:14 PM 15.8 °F 6.1 °F 12.2 °F 86% 29.77 in 1.2 mi NNE 6.9 mph - N/A   Overcast
1:33 PM 15.8 °F 5.1 °F 12.2 °F 86% 29.77 in 1.5 mi NNE 8.1 mph - N/A   Overcast
1:53 PM 15.8 °F 4.2 °F 10.4 °F 79% 29.78 in 1.8 mi NNE 9.2 mph - N/A   Overcast
2:14 PM 15.8 °F 5.1 °F 10.4 °F 79% 29.78 in 1.8 mi North 8.1 mph - N/A   Overcast
2:33 PM 15.8 °F 5.1 °F 10.4 °F 79% 29.78 in 1.5 mi North 8.1 mph - N/A   Overcast
2:53 PM 12.2 °F -0.2 °F 8.6 °F 85% 29.78 in 1.2 mi North 9.2 mph - N/A   Overcast
3:14 PM 12.2 °F -0.2 °F 8.6 °F 85% 29.79 in 1.8 mi NNE 9.2 mph - N/A Snow Light Snow
3:34 PM 10.4 °F -3.3 °F 6.8 °F 85% 29.79 in 1.5 mi North 10.4 mph - N/A Snow Light Snow
3:53 PM 10.4 °F -3.3 °F 5.0 °F 79% 29.80 in 1.2 mi North 10.4 mph - N/A Snow Light Snow
4:13 PM 8.6 °F -7.0 °F 3.2 °F 79% 29.82 in 1.5 mi North 12.7 mph - N/A Snow Light Snow
4:34 PM 6.8 °F -9.3 °F 3.2 °F 85% 29.82 in 1.5 mi North 12.7 mph - N/A Snow Light Snow
4:53 PM 6.8 °F -7.8 °F 3.2 °F 85% 29.83 in 1.8 mi North 10.4 mph - N/A Snow Light Snow
5:14 PM 6.8 °F -9.3 °F 1.4 °F 79% 29.82 in 3.0 mi North 12.7 mph - N/A Snow Light Snow
5:33 PM 6.8 °F -9.3 °F 1.4 °F 79% 29.84 in 4.0 mi North 12.7 mph - N/A Snow Light Snow
5:53 PM 6.8 °F -10.0 °F -0.4 °F 72% 29.85 in 3.0 mi North 13.8 mph - N/A Snow Light Snow
6:14 PM 3.2 °F -13.9 °F -0.4 °F 85% 29.86 in 2.5 mi North 12.7 mph - N/A Snow Light Snow
6:33 PM 3.2 °F -14.6 °F -2.2 °F 78% 29.86 in 0.5 mi North 13.8 mph - N/A Snow Light Snow
6:54 PM 3.2 °F -15.3 °F -2.2 °F 78% 29.88 in 0.5 mi North 15.0 mph 19.6 mph N/A Snow Light Snow
7:13 PM 3.2 °F -14.6 °F -2.2 °F 78% 29.90 in 0.5 mi North 13.8 mph 17.3 mph N/A Snow Light Snow
7:33 PM 1.4 °F -16.9 °F -4.0 °F 78% 29.90 in 0.8 mi North 13.8 mph - N/A Snow Light Snow
7:54 PM 1.4 °F -16.1 °F -5.8 °F 72% 29.91 in 0.8 mi NNW 12.7 mph 18.4 mph N/A Snow Light Snow
8:13 PM 1.4 °F -16.1 °F -5.8 °F 72% 29.92 in 1.0 mi NNW 12.7 mph - N/A Snow Light Snow
8:34 PM -0.4 °F -21.2 °F -7.6 °F 72% 29.93 in 0.8 mi NNW 17.3 mph 21.9 mph N/A Snow Light Snow
8:54 PM -0.4 °F -19.2 °F -7.6 °F 72% 29.92 in 0.8 mi North 13.8 mph - N/A Snow Light Snow
9:13 PM -0.4 °F -19.2 °F -7.6 °F 72% 29.93 in 0.8 mi North 13.8 mph 19.6 mph N/A Snow Light Snow
9:34 PM -2.2 °F -21.5 °F -7.6 °F 78% 29.93 in 0.8 mi NNW 13.8 mph 19.6 mph N/A Snow Light Snow
9:54 PM -2.2 °F -22.2 °F -9.4 °F 71% 29.93 in 0.8 mi NNW 15.0 mph 20.7 mph N/A Snow Light Snow
10:13 PM -2.2 °F -22.9 °F -9.4 °F 71% 29.93 in 1.0 mi NNW 16.1 mph - N/A Snow Light Snow
10:34 PM -2.2 °F -23.5 °F -9.4 °F 71% 29.93 in 2.0 mi NNW 17.3 mph 20.7 mph N/A Snow Light Snow
10:53 PM -2.2 °F -22.2 °F -9.4 °F 71% 29.93 in 1.2 mi North 15.0 mph 19.6 mph N/A Snow Light Snow
11:13 PM -4.0 °F -25.2 °F -11.2 °F 71% 29.93 in 1.5 mi NNW 16.1 mph - N/A Snow Light Snow
11:34 PM -4.0 °F -24.5 °F -11.2 °F 71% 29.94 in 3.0 mi NNW 15.0 mph 21.9 mph N/A Snow Light Snow
11:53 PM -5.8 °F -26.8 °F -11.2 °F 77% 29.95 in 4.0 mi NNW 15.0 mph 20.7 mph N/A   Haze